Location: Unspecified
(0.0000°N, 0.0000°E)
Time: 13:39:49
(UTC+00:00)

Vanguard 3 - Pass Details

Date: 22 November 2019
Orbit: 508 x 3263 km, 33.3° (Epoch: 08 December)

Event Time Altitude Azimuth Distance (km) Brightness Sun altitude
Rises 17:36:49 0° 318° (NW) 7,024 12.2 2.2°
Reaches altitude 10° 17:44:00 10° 332° (NNW) 5,651 11.6 0.5°
Maximum altitude 17:54:41 20° 14° (NNE) 4,026 10.4 -2.0°
Drops below altitude 10° 18:02:30 10° 57° (ENE) 4,034 10.1 -3.8°
Enters shadow 18:04:39 - 67° (ENE) 4,297 10.1 -4.3°
Sets 18:06:21 0° 74° (ENE) 4,576 - -4.7°
